Probability
0 0 0 0 0 1 3 4 7 9 8 9 11 12 11 11 10 8 5 3 2 2 3 3 3 2 1 0 0 0 0 0 0 0 0 0 0 0 0 0 0 0 0
0 0 0 0 1 1 2 4 6 8 9 11 14 14 14 13 11 9 7 4 2 3 3 3 3 2 1 0 0 1 1 0 0 0 0 0 0 0 0 0 0 0 0
0 0 0 0 1 2 2 3 4 5 6 9 11 11 11 10 9 9 8 4 2 2 3 3 2 1 1 0 0 1 1 0 0 0 0 0 0 0 0 0 0 0 0
0 0 0 1 2 2 2 3 3 2 3 4 5 5 5 5 5 7 6 3 1 1 1 2 1 1 1 1 1 1 1 0 0 0 1 1 1 1 1 0 0 0 0
0 0 0 1 2 2 2 3 2 1 2 2 3 3 3 3 4 4 3 1 0 0 0 0 0 0 1 1 1 1 0 1 1 1 2 2 2 2 2 1 0 0 0
0 0 0 0 1 1 2 3 2 1 1 1 2 2 2 2 3 2 1 0 0 0 0 0 0 1 1 2 2 2 2 2 2 3 3 3 3 3 3 1 0 0 0
0 0 0 0 0 0 1 2 1 1 1 1 1 1 0 1 1 1 1 1 1 1 0 1 1 1 2 3 3 3 3 3 3 3 3 3 3 3 3 2 1 0 0
0 0 0 0 0 0 0 0 0 0 1 1 1 0 0 0 1 2 2 2 2 2 1 2 2 3 3 3 3 3 3 3 3 3 3 3 2 2 2 2 1 0 0
0 0 0 0 0 0 0 0 0 0 0 1 1 0 0 0 1 1 2 3 3 2 1 2 3 3 3 3 3 3 3 3 2 2 2 1 1 1 1 1 0 0 0
0 0 0 0 0 0 0 0 0 0 0 0 0 0 0 0 0 0 1 1 2 1 0 1 2 2 3 3 3 2 2 1 1 1 1 0 0 0 0 0 0 0 0
0 0 0 0 0 0 0 0 0 0 0 0 0 0 0 0 0 0 0 0 0 0 0 0 1 1 1 2 1 1 1 0 0 0 0 0 0 0 0 0 0 0 0
0 0 0 0 0 0 0 0 0 0 0 0 0 0 0 0 0 0 0 0 0 0 0 0 0 0 0 0 0 0 0 0 0 0 0 0 0 0 0 0 0 0 0
0 0 0 0 0 0 0 0 0 0 0 0 0 0 0 0 0 0 0 0 0 0 0 0 0 0 0 0 0 0 0 0 0 0 0 0 0 0 0 0 0 0 0
0 0 0 0 0 0 0 0 0 0 0 0 0 0 0 0 0 0 0 0 0 0 0 0 0 0 0 0 0 0 0 0 0 0 0 0 0 0 0 0 0 0 0
0 0 0 0 0 0 0 0 0 0 0 0 0 0 0 0 0 0 0 0 0 0 0 0 0 0 0 0 0 0 0 0 0 0 0 0 0 0 0 0 0 0 0
0 0 0 0 0 0 0 0 0 0 0 0 0 0 0 0 0 0 0 0 0 0 0 0 0 0 0 0 0 0 0 0 0 0 0 0 0 0 0 0 0 0 0
0 0 0 0 0 0 0 0 0 0 0 0 0 0 0 0 0 0 0 0 0 0 0 0 0 0 0 0 0 0 0 0 0 0 0 0 0 0 0 0 0 0 0
0 0 0 0 0 0 0 0 0 0 0 0 0 0 0 0 0 0 0 0 0 0 0 0 0 0 0 0 0 0 0 0 0 0 0 0 0 0 0 0 0 0 0
0 0 0 0 0 0 0 0 0 0 0 0 0 0 0 0 0 0 0 0 0 0 0 0 0 0 0 0 0 0 0 0 0 0 0 0 0 0 0 0 0 0 0
0 0 0 0 0 0 0 0 0 0 0 0 0 0 0 0 0 0 0 0 0 0 0 0 0 0 0 0 0 0 0 0 0 0 0 0 0 0 0 0 0 0 0
0 0 0 0 0 0 0 0 0 0 0 0 0 0 0 0 0 0 0 0 0 0 0 0 0 0 0 0 0 0 0 0 0 0 0 0 0 0 0 0 0 0 0
0 0 0 0 0 0 0 0 0 0 0 0 0 0 0 0 0 0 0 0 0 0 0 0 0 0 0 0 0 0 0 0 0 0 0 0 0 0 0 0 0 0 0
0 0 0 0 0 0 0 0 0 0 0 0 0 0 0 0 0 0 0 0 0 0 0 0 0 0 0 0 0 0 0 0 0 0 0 0 0 0 0 0 0 0 0
0 0 0 0 0 0 0 0 0 0 0 0 0 0 0 0 0 0 0 0 0 0 0 0 0 0 0 0 0 0 0 0 0 0 0 0 0 0 0 0 0 0 0
0 0 0 0 0 0 0 0 0 0 0 0 0 0 0 0 0 0 0 0 0 0 0 0 0 0 0 0 0 0 0 0 0 0 0 0 0 0 0 0 0 0 0
0 0 0 0 0 0 0 0 0 0 0 0 0 0 0 0 0 0 0 0 0 0 0 0 0 0 0 0 0 0 0 0 0 0 0 0 0 0 0 0 0 0 0
Wind_Speed
5 5 5 5 5 7 9 10 12 11 9 7 7 7 7 7 6 6 8 9 8 9 8 6 7 7 7 7 8 6 6 5 3 3 4 4 3 2 1 1 1 1 1
6 7 7 7 7 8 8 9 9 9 10 8 7 5 6 5 6 5 7 8 9 9 7 8 7 7 6 8 7 7 5 4 4 4 3 3 4 3 1 1 0 0 1
8 9 8 8 7 7 8 7 7 7 8 8 5 4 4 3 4 5 5 7 8 8 8 8 8 7 7 6 7 7 8 5 4 4 4 3 3 1 3 2 1 1 0
7 7 7 8 8 7 6 7 7 7 7 8 7 8 6 5 5 5 5 5 7 8 8 8 8 7 6 6 7 7 6 6 4 4 4 4 3 3 2 3 3 2 1
6 6 6 7 7 7 6 7 7 8 8 8 9 8 6 4 3 4 5 5 5 6 7 7 7 7 6 6 6 6 6 5 5 4 4 4 4 5 5 4 3 3 2
6 6 5 6 5 5 5 5 6 7 8 9 9 10 10 9 8 7 6 5 4 4 6 6 6 6 6 6 6 6 7 5 5 4 4 4 4 4 5 6 5 4 2
6 6 6 6 6 5 4 4 5 6 6 8 8 9 10 10 9 8 7 6 5 5 7 7 6 6 6 6 6 6 6 6 7 5 4 4 4 2 4 5 4 4 3
6 6 5 5 5 5 5 4 5 5 5 5 5 7 7 5 5 7 6 7 6 5 6 7 7 7 6 6 6 5 5 5 6 6 5 4 3 3 4 4 4 4 4
7 7 6 5 5 5 4 4 4 5 4 4 5 5 6 6 6 6 6 5 5 5 7 7 7 7 7 7 7 5 6 6 5 5 5 4 3 3 3 3 4 4 4
8 8 7 6 5 5 5 5 4 4 3 3 3 2 4 5 5 5 6 6 6 6 8 8 7 7 7 7 7 6 6 6 5 4 5 4 3 3 3 3 3 4 4
8 8 7 7 6 7 6 5 4 4 3 2 2 2 3 3 4 5 6 6 6 7 8 8 8 8 8 7 7 6 7 6 6 5 5 5 4 3 3 3 3 4 4
9 9 8 8 8 7 7 6 5 4 3 2 1 2 2 3 3 4 5 6 6 7 7 7 8 7 7 7 7 7 7 7 6 6 5 5 4 5 3 3 4 3 4
10 9 9 8 8 7 7 6 5 4 3 2 1 2 2 2 3 3 4 5 6 6 7 7 7 8 7 7 6 6 6 6 5 5 6 5 5 5 4 4 3 3 3
9 9 9 8 8 7 6 6 5 4 3 1 1 1 1 2 3 3 4 5 6 7 7 7 7 7 7 7 6 6 6 5 5 5 4 4 5 5 5 4 4 3 3
9 9 9 8 7 7 7 6 5 4 3 2 1 0 0 1 2 3 4 5 5 6 6 7 7 7 6 6 7 6 6 6 6 5 4 4 3 3 3 3 3 3 3
8 8 8 8 7 7 7 6 5 5 3 2 1 0 1 2 3 3 4 5 5 6 6 7 7 7 5 7 9 7 6 6 6 5 5 4 5 5 5 4 2 2 3
7 7 7 7 7 7 7 6 6 4 3 3 2 1 1 2 2 3 4 5 6 6 6 6 7 7 7 10 11 9 6 6 6 6 5 4 4 5 5 5 4 2 1
6 6 6 6 6 6 6 6 5 4 3 3 2 2 2 3 3 4 5 5 5 6 6 6 7 7 8 11 12 11 7 5 6 6 6 6 6 6 6 5 4 3 2
5 5 6 6 6 6 6 6 5 5 4 3 3 3 3 4 4 5 5 5 5 6 6 6 7 7 8 11 12 11 6 5 6 6 6 7 7 9 9 6 5 4 3
4 5 5 5 6 6 6 6 5 5 5 5 5 4 4 5 5 5 5 4 5 6 6 6 7 8 7 11 13 13 6 6 6 6 6 8 8 10 11 7 7 6 5
5 5 6 5 6 6 6 6 6 6 6 6 5 5 5 5 5 5 4 4 5 5 6 6 6 7 8 11 15 15 7 7 6 6 6 6 12 12 13 10 6 6 5
6 6 6 6 6 6 6 6 6 7 7 6 5 5 5 4 4 5 4 5 6 6 7 7 7 6 7 10 13 17 14 10 7 6 6 6 12 13 13 10 8 9 8
6 6 7 7 6 6 6 7 7 8 7 6 6 5 5 4 4 5 5 5 5 5 6 6 6 6 6 7 14 16 17 16 9 6 8 9 12 12 10 12 12 10 7
6 6 7 8 7 7 7 7 8 8 7 7 6 5 5 4 4 4 4 5 5 6 6 6 7 6 6 6 7 8 10 14 11 7 9 12 12 10 8 9 9 8 7
6 6 7 8 8 8 8 8 8 8 7 7 6 6 5 5 5 5 5 6 7 7 7 6 6 6 7 9 13 9 8 8 8 7 6 6 6 7 7 7 7 7 7
6 7 7 8 8 8 8 8 7 7 7 7 6 5 5 5 5 5 5 8 10 11 13 11 9 8 9 10 14 16 15 14 14 10 7 8 8 8 8 8 8 8 8
Wind_Direction
187 177 191 174 188 212 205 194 187 175 171 169 172 172 180 182 185 191 194 193 196 199 203 205 206 203 207 206 207 205 209 214 220 237 246 239 234 244 246 290 308 44 25
178 175 179 179 194 205 204 192 191 176 178 181 178 174 171 180 183 185 192 196 199 200 203 208 209 207 210 209 207 204 208 206 205 228 246 246 205 179 185 158 92 61 75
182 177 178 179 187 203 200 190 189 182 186 182 166 154 154 155 173 184 190 199 199 201 202 207 211 210 209 207 206 208 214 206 197 224 244 249 252 233 190 179 201 181 137
181 177 180 182 186 188 189 190 188 189 188 181 183 185 188 196 192 185 186 191 198 201 201 203 206 204 206 210 209 210 215 211 200 200 231 257 277 252 244 193 194 205 257
176 170 175 176 178 170 177 190 188 193 193 191 192 194 199 208 197 184 183 193 197 200 197 197 197 200 203 206 201 197 204 211 209 201 197 213 227 239 252 256 236 229 226
157 153 148 149 148 147 161 177 180 188 190 195 199 201 201 200 200 197 195 196 191 195 198 194 195 195 193 194 194 192 197 202 203 202 206 211 215 213 227 248 258 263 242
138 136 130 134 134 135 145 159 170 179 185 193 199 206 207 200 201 199 202 196 193 196 195 189 193 192 189 183 181 184 189 193 194 196 203 216 231 236 238 250 258 262 261
110 108 105 117 126 130 136 142 151 158 161 175 191 200 197 191 199 203 204 201 198 196 187 185 186 182 175 174 174 178 183 188 191 192 195 200 205 213 224 237 247 254 249
92 95 92 97 109 118 122 129 138 142 150 162 177 186 185 193 201 198 201 200 190 176 177 176 177 177 173 172 169 176 179 181 183 184 192 197 192 199 219 231 236 243 256
77 78 80 79 78 85 92 101 115 121 126 145 164 176 181 184 187 185 189 187 178 171 170 172 172 170 169 169 168 169 175 176 174 176 188 193 191 191 207 219 229 237 251
69 69 70 66 68 71 73 79 87 95 98 102 131 154 162 167 175 180 181 175 170 171 172 171 166 167 167 168 169 172 170 175 174 179 191 193 191 196 199 208 219 226 235
62 61 61 60 57 57 58 60 65 72 72 77 103 120 137 154 165 168 168 166 164 166 167 165 163 164 166 170 172 169 175 179 180 182 188 191 186 195 197 206 218 225 232
61 59 56 52 48 45 46 48 48 50 56 70 105 126 142 156 163 163 161 160 160 160 162 163 163 163 165 167 170 170 174 179 182 184 190 191 193 197 197 204 212 215 222
54 51 49 46 43 39 36 35 35 30 30 38 87 133 154 167 168 167 165 164 165 165 165 166 164 163 163 164 165 167 169 171 174 180 188 193 200 203 197 201 211 211 217
47 41 37 34 31 30 28 23 19 15 6 1 359 22 145 157 165 168 168 167 168 168 166 163 163 165 167 170 169 169 172 174 175 179 184 187 188 196 196 202 206 208 218
39 34 31 27 23 18 12 8 6 1 348 336 323 325 197 180 179 176 174 173 172 171 170 172 171 172 176 172 176 175 177 180 183 181 180 175 180 181 181 185 200 228 234
29 24 17 11 6 1 354 353 350 343 336 326 312 278 231 214 200 187 186 186 182 180 182 183 183 185 181 180 183 185 180 181 182 181 182 182 180 178 172 160 156 163 210
17 12 6 0 356 349 346 341 339 337 328 317 303 278 247 231 215 206 204 199 192 191 192 193 194 194 188 188 187 181 184 184 185 188 192 192 187 185 183 179 179 180 175
4 359 353 348 344 346 342 333 334 331 321 309 295 275 252 238 226 220 214 206 201 202 201 197 197 199 196 194 191 183 184 189 193 195 201 200 197 187 188 186 187 191 176
356 349 344 343 344 345 338 330 331 327 320 311 297 279 257 243 236 231 224 218 212 210 204 204 204 204 204 199 197 191 193 195 194 196 201 208 207 193 193 197 196 203 190
344 341 339 340 341 338 332 327 327 326 320 309 295 281 264 252 247 239 227 221 217 212 210 210 212 212 212 205 204 200 202 200 197 198 201 202 203 205 204 206 210 203 186
338 337 332 330 332 334 328 321 322 323 316 307 295 285 273 260 246 238 229 223 219 216 214 214 216 215 213 214 212 210 211 206 204 205 205 200 199 206 207 207 202 192 186
330 329 323 320 323 329 326 316 321 322 316 308 300 293 283 265 247 235 229 223 220 222 219 215 217 216 209 214 219 218 216 213 211 208 203 198 199 204 210 213 202 195 195
323 322 319 316 318 324 322 317 317 316 312 306 303 296 285 275 260 246 233 229 225 226 225 222 222 217 210 209 208 212 216 215 214 209 205 203 204 205 206 204 204 203 201
316 315 313 311 313 317 316 317 317 314 308 303 299 293 281 272 265 254 244 239 238 235 233 230 226 219 220 217 206 199 203 203 200 185 183 190 192 199 200 201 203 201 199
310 308 306 307 309 311 311 313 315 312 307 302 299 294 289 282 274 269 265 248 248 251 248 245 238 235 235 226 216 215 212 207 198 188 192 198 201 204 203 201 201 203 205